Wind_Speed
19 19 18 16 14 13 12 11 10 9 8 8 8 7 6 7 10 8 9 13 11 14 17 24 11 11 7 5 3 2 5 10 9 9 4 3 2 2 5 8 6 8 2 9 30
22 20 19 18 16 14 13 11 10 9 8 7 7 5 5 6 8 14 25 16 15 25 22 27 15 15 6 7 5 8 7 10 5 6 4 1 2 7 4 7 8 7 14 25 28
23 22 21 20 18 15 13 12 10 9 7 6 6 5 3 3 4 7 3 8 22 25 22 22 24 11 9 5 9 6 9 7 6 8 1 1 6 4 8 11 13 22 19 21 26
23 22 21 20 19 16 14 12 11 8 7 5 4 4 1 2 5 1 9 11 26 28 20 21 17 13 10 10 9 6 10 7 11 5 4 4 5 10 6 2 5 14 22 22 22
23 23 22 21 20 18 15 13 11 9 6 5 4 3 3 3 10 12 6 13 27 24 20 13 23 12 14 11 8 14 7 11 14 13 11 8 11 5 11 10 10 19 18 20 19
23 23 22 22 21 19 17 13 11 9 6 5 3 4 3 7 5 4 6 23 24 24 18 20 14 8 9 8 16 9 20 14 6 11 8 9 8 4 1 9 13 19 19 19 18
25 24 23 22 22 20 17 13 11 8 5 5 5 4 4 12 4 7 14 14 24 19 17 12 14 11 7 5 11 9 4 13 15 13 8 12 7 6 6 12 17 15 15 15 14
26 26 25 23 23 21 18 14 10 6 3 4 5 3 7 3 15 14 12 9 17 10 12 7 7 6 4 2 4 6 5 9 4 14 5 12 12 4 8 13 15 15 14 13 8
27 27 26 24 24 21 20 15 7 3 2 5 4 4 7 2 6 15 19 14 19 6 6 8 7 6 3 5 4 2 4 7 2 8 7 9 8 7 10 12 14 14 13 11 10
27 27 26 25 23 21 14 7 10 10 6 5 4 4 7 4 8 13 14 22 9 10 5 6 5 7 3 6 8 7 6 3 3 6 8 10 8 10 10 13 12 12 12 10 9
28 28 27 25 22 17 8 3 3 3 7 10 6 4 2 8 14 7 17 13 10 11 9 7 8 14 12 10 3 5 5 3 2 5 6 11 11 8 7 12 13 12 11 10 9
30 28 27 26 24 17 6 5 4 2 6 21 10 11 7 1 5 13 17 8 15 15 9 7 14 13 7 10 8 5 6 7 4 2 5 8 10 6 6 7 10 12 12 11 8
31 30 28 28 26 5 9 13 5 6 4 5 9 8 7 12 8 17 17 9 13 11 13 12 7 14 12 8 10 10 11 5 3 8 6 14 6 8 4 7 8 8 8 8 11
31 30 27 29 2 4 7 7 3 10 3 4 6 7 8 7 6 16 24 12 5 12 10 7 7 11 12 14 12 11 11 5 13 8 5 4 9 8 8 9 11 12 12 12 11
32 30 26 18 15 5 4 6 9 4 3 3 4 7 9 13 15 9 19 6 10 8 7 8 10 10 11 16 15 5 8 8 10 5 12 5 4 7 6 11 15 16 16 15 12
34 34 27 14 11 19 5 2 4 4 6 2 6 10 9 7 7 9 11 3 3 5 4 8 1 3 5 3 17 12 8 6 3 4 5 3 3 4 10 19 17 15 17 17 13
40 40 32 18 6 5 16 2 4 5 1 5 4 8 13 8 7 15 15 12 11 10 11 4 10 3 9 13 8 5 8 5 6 5 1 1 4 2 14 12 15 19 18 16 14
46 42 19 15 24 7 10 4 6 6 5 2 2 8 9 5 6 13 17 15 8 5 4 9 5 9 8 4 10 5 4 4 6 4 3 1 4 2 2 2 3 7 15 16 16
42 13 7 1 16 18 7 9 8 5 5 5 3 3 4 3 4 7 16 18 17 12 4 6 3 3 5 4 5 6 3 2 7 2 3 2 2 5 4 4 2 8 12 17 16
19 8 4 5 18 13 6 6 6 3 4 2 2 1 3 3 4 6 12 7 10 13 7 2 4 4 4 2 11 4 10 4 2 6 5 2 2 3 3 5 5 8 13 14 15
5 2 10 12 14 4 8 8 3 4 3 3 3 3 2 1 3 3 4 3 1 4 7 7 1 3 5 2 9 5 3 4 4 3 5 4 3 5 6 8 8 3 7 11 16
5 3 10 6 4 2 4 4 2 5 3 3 3 4 3 3 2 3 4 3 2 6 6 1 3 4 2 3 1 2 3 7 7 7 1 1 3 5 7 9 9 7 2 8 13
4 2 4 5 3 4 2 1 1 1 3 3 3 1 2 4 4 4 2 2 2 3 5 5 3 4 3 4 2 2 3 3 5 3 7 5 3 4 8 9 11 10 8 4 9
2 2 3 2 3 4 3 4 2 4 4 3 3 3 3 2 4 5 6 2 5 2 2 4 4 3 4 7 4 5 5 6 3 4 7 5 5 4 8 11 12 13 12 5 4
4 3 2 4 5 7 6 7 3 3 4 2 3 1 4 3 2 2 4 7 4 6 4 1 7 4 4 2 1 7 9 7 3 5 4 3 5 5 5 7 9 10 11 11 9
4 4 5 4 6 11 10 11 9 3 7 4 5 6 5 4 4 1 2 3 4 3 3 5 3 4 2 4 5 7 6 4 4 3 1 2 4 4 3 4 7 9 10 11 11
7 4 3 7 6 5 5 10 11 5 9 9 3 9 11 6 5 6 8 9 5 3 3 6 5 0 2 2 2 1 4 3 4 4 4 4 6 4 3 6 6 4 9 10 10
Wind_Direction
353 349 344 339 333 331 326 316 310 305 295 289 283 282 284 283 283 261 236 233 224 195 167 151 139 145 134 156 143 165 224 225 210 182 187 144 325 135 289 254 185 169 125 118 141
356 353 348 342 338 332 327 320 311 303 296 291 287 283 276 295 291 249 262 234 219 183 157 163 166 151 164 172 179 205 226 215 207 196 177 133 244 331 262 189 172 115 94 129 141
354 351 349 344 340 334 327 321 311 305 296 290 285 277 254 308 278 248 283 228 202 188 176 172 164 155 171 168 184 194 231 202 210 216 256 251 299 316 304 198 192 171 147 149 148
352 352 348 344 341 336 329 321 314 304 294 284 273 257 208 170 244 254 350 192 177 170 146 145 163 173 183 190 194 226 228 228 229 212 265 274 316 314 266 213 267 166 159 153 157
350 349 347 345 341 336 330 322 314 303 289 273 261 179 148 212 252 277 321 154 163 166 161 152 165 174 189 202 182 230 238 229 236 254 262 283 276 272 265 280 146 145 164 157 164
349 348 346 345 342 336 330 323 314 305 289 274 243 154 205 240 237 235 180 154 161 167 162 156 179 178 189 203 205 211 226 238 250 241 239 238 259 204 220 154 140 153 166 166 166
348 347 345 343 343 336 329 321 312 304 289 252 219 176 238 247 189 147 166 160 165 170 168 178 168 179 155 174 217 245 240 237 245 233 228 215 239 223 153 163 145 156 167 156 160
347 347 345 343 343 338 330 318 302 287 268 220 188 193 249 238 212 232 179 156 178 157 179 171 154 194 230 129 131 200 210 235 189 194 207 195 200 149 164 158 155 158 155 145 151
345 345 343 341 341 338 330 318 286 230 182 168 167 222 257 215 207 209 175 167 172 153 112 162 159 214 191 205 191 182 198 212 165 186 159 210 182 157 161 171 160 160 144 142 124
343 342 340 338 338 338 345 34 108 108 124 165 263 262 241 209 151 150 168 155 152 158 141 156 178 202 171 201 202 178 198 190 182 148 170 184 127 150 167 170 162 155 145 144 124
340 339 337 335 335 336 338 95 184 167 210 207 196 234 140 103 127 160 154 144 132 161 170 178 196 206 203 210 226 159 163 185 168 181 177 191 139 153 168 170 165 161 149 137 126
336 335 333 330 327 315 281 238 228 354 282 226 245 267 271 62 103 146 162 142 157 168 152 158 215 213 224 209 209 204 239 242 97 4 200 164 133 123 157 181 182 164 156 155 144
332 332 330 328 326 281 221 235 220 34 255 248 194 222 219 180 197 177 182 146 170 159 179 178 218 212 193 189 211 221 228 218 193 117 76 145 145 171 124 127 154 176 165 158 172
327 328 328 332 351 332 252 287 291 223 265 225 210 234 164 176 180 163 184 167 167 176 177 213 192 158 192 214 203 220 215 197 151 172 164 232 187 210 182 173 193 194 192 178 182
325 323 323 322 291 250 266 5 146 188 270 153 159 151 158 176 139 177 181 157 172 152 187 192 173 179 208 224 194 223 145 169 167 172 143 155 217 135 181 203 203 200 196 192 187
323 319 318 317 222 245 237 307 192 205 242 166 138 170 166 190 155 130 175 137 138 175 221 241 279 227 221 147 185 142 108 76 98 173 165 112 273 181 192 209 207 201 198 191 183
323 317 302 254 232 275 197 231 182 223 323 161 145 163 175 173 130 157 167 177 182 191 215 215 249 191 140 104 133 142 160 162 190 201 190 33 222 68 208 207 213 208 196 188 179
323 320 303 243 221 124 151 172 201 207 216 27 102 126 183 152 163 172 166 183 189 180 179 207 170 173 159 166 171 146 200 220 218 207 128 107 188 133 158 142 213 226 202 184 181
327 318 284 279 195 181 176 202 193 203 175 164 86 126 128 122 134 159 186 186 193 190 201 164 168 107 21 122 164 150 181 21 103 69 213 134 229 249 250 247 252 212 195 198 181
318 309 274 278 162 164 184 200 208 202 129 106 117 3 135 122 139 158 180 183 193 204 223 149 122 48 149 109 51 189 142 157 112 164 216 147 264 172 198 211 188 194 207 198 185
304 312 8 139 144 184 192 198 222 227 153 72 122 115 112 83 112 107 143 116 137 134 193 204 211 130 160 203 171 144 158 77 94 328 210 192 192 3 330 338 308 279 216 198 194
324 111 152 147 156 212 177 200 243 141 59 85 102 114 148 147 37 91 107 50 345 137 155 49 138 184 91 4 166 61 163 165 209 190 81 301 172 18 3 357 340 328 237 209 205
344 298 202 227 121 143 1 295 289 109 108 113 137 116 141 148 139 130 83 352 143 119 148 176 42 148 147 150 112 107 106 98 103 109 176 207 189 48 24 25 16 4 344 237 207
327 42 0 68 20 58 20 15 118 30 78 105 119 111 115 93 47 155 148 196 90 118 144 98 110 121 268 275 134 165 172 167 144 172 160 217 154 187 27 19 15 11 5 332 230
8 47 23 359 14 44 31 3 24 72 51 27 88 161 128 116 107 114 158 129 114 167 101 134 167 136 37 215 254 141 158 169 155 144 228 129 182 81 47 33 17 14 21 37 36
46 20 344 14 351 11 13 13 19 61 6 31 82 83 66 72 19 129 146 149 159 105 80 15 44 82 43 352 127 100 70 105 62 102 239 129 146 45 103 26 27 28 28 34 30
8 334 293 32 109 357 1 3 334 284 46 53 63 99 70 31 3 65 85 75 60 122 119 135 134 12 156 111 11 97 16 358 70 45 354 244 61 10 1 3 4 62 39 24 9
Height
789 786 784 781 778 776 774 773 771 770 769 769 768 768 769 769 768 769 766 757 757 763 764 769 776 778 781 782 785 786 791 788 785 790 778 771 773 767 761 764 763 764 768 772 783
788 785 782 779 775 773 771 770 768 767 767 766 766 766 766 767 766 762 749 751 755 757 762 765 772 776 780 781 783 782 786 782 775 772 772 772 774 770 769 767 768 772 777 780 785
787 784 781 777 774 771 769 768 767 765 765 765 764 764 764 765 765 745 741 742 750 754 759 763 769 772 778 781 781 780 778 777 774 771 772 773 771 768 768 771 764 763 776 781 785
786 783 779 776 772 769 767 766 765 763 763 762 763 763 763 765 761 740 738 738 745 752 758 762 768 773 776 780 776 783 776 775 769 771 772 772 769 769 763 760 757 764 768 774 782
785 782 778 774 771 768 765 764 762 761 761 761 761 761 764 763 748 739 739 740 746 751 754 756 764 769 774 774 777 779 774 769 768 767 770 769 769 770 763 755 758 764 775 775 781
784 781 777 772 769 765 762 761 760 759 759 759 759 761 764 759 739 738 739 741 744 749 754 756 760 762 767 771 772 767 767 766 765 766 768 769 764 767 761 758 762 765 771 776 780
783 779 774 770 767 763 760 758 757 757 758 759 759 761 760 741 737 738 739 743 747 748 751 755 756 761 764 769 762 762 772 768 764 763 765 762 770 765 759 760 764 769 775 778 784
780 776 772 767 764 760 757 755 754 755 757 758 759 761 748 735 736 737 741 744 749 749 753 755 757 759 761 759 765 770 771 775 753 759 758 759 768 763 757 760 766 771 775 778 785
778 774 769 765 761 758 754 751 751 753 756 759 761 760 740 733 733 732 735 740 748 751 753 754 759 761 761 765 770 772 776 773 761 757 759 762 763 765 761 762 768 771 775 782 789
776 771 767 763 759 756 752 749 749 753 757 760 760 758 732 723 724 728 734 739 744 750 753 756 759 761 766 766 776 771 771 766 762 761 758 763 768 767 764 765 771 775 779 785 790
773 768 764 760 757 755 753 753 756 754 754 732 727 722 717 720 722 728 731 738 742 747 755 755 760 763 759 759 757 758 761 763 758 755 757 758 771 775 773 771 775 779 784 789 794
769 765 760 756 754 752 753 749 733 733 730 725 727 724 719 718 723 728 731 732 741 749 750 758 759 749 750 756 759 758 761 759 762 762 758 768 779 782 778 776 776 782 785 789 795
765 761 756 752 747 745 745 737 731 730 729 715 717 715 712 716 718 726 726 727 736 746 744 750 744 740 752 758 761 755 757 758 759 766 767 769 783 783 784 784 784 786 787 791 794
761 757 753 747 747 745 738 728 728 732 730 714 712 703 706 706 716 711 716 720 731 738 744 743 735 744 749 751 749 757 743 749 758 763 774 768 780 785 782 784 785 786 788 790 794
755 752 750 749 747 743 729 727 726 731 747 702 704 697 698 700 701 715 712 715 728 733 737 737 738 743 748 741 743 746 742 748 753 761 761 770 768 770 782 781 778 779 783 785 789
749 745 744 741 739 725 727 728 729 735 741 703 695 701 705 698 701 707 712 709 713 727 733 729 725 728 729 736 734 744 749 756 761 758 768 774 770 773 774 763 763 771 778 781 788
740 734 736 735 725 719 723 729 734 735 703 704 700 696 697 702 705 704 714 721 728 744 743 735 730 723 725 739 743 741 749 767 774 770 773 782 774 757 754 754 753 759 770 779 787
729 720 713 713 713 719 723 724 731 710 706 694 695 696 704 699 703 706 714 723 721 724 737 745 750 728 721 725 735 747 747 756 782 778 774 783 775 756 759 760 761 761 765 775 784
720 712 708 706 710 716 714 720 711 706 696 698 699 704 707 701 702 708 711 714 714 719 731 738 739 724 726 723 724 749 753 758 772 792 775 776 770 761 760 759 763 764 768 773 781
719 713 706 704 708 715 708 709 700 693 690 694 708 709 712 708 708 708 715 710 712 712 711 728 740 732 735 728 735 732 746 760 760 786 789 780 780 759 758 756 764 767 767 771 779
717 706 703 701 708 709 705 701 698 689 685 696 707 713 713 710 708 712 715 715 710 717 713 717 731 741 734 738 737 749 749 764 764 771 770 779 771 771 765 763 760 760 766 770 775
717 698 709 707 704 706 700 698 692 690 688 695 699 707 711 715 715 714 718 714 708 710 720 731 731 741 741 741 740 741 741 743 753 779 784 773 767 778 776 772 768 764 766 768 773
718 711 708 708 700 703 701 696 692 692 694 699 703 703 707 715 723 721 719 715 710 715 725 728 748 753 754 747 743 745 755 758 762 762 775 768 767 779 777 776 776 774 770 770 773
718 705 707 706 710 705 709 707 699 693 698 698 702 702 707 712 714 720 721 719 714 723 724 728 750 757 759 742 741 753 756 757 749 759 769 765 766 777 783 783 782 780 776 772 774
721 726 729 721 714 711 708 710 703 703 701 703 705 704 709 718 718 719 714 718 721 723 724 729 743 744 751 749 745 747 753 755 752 759 757 759 764 786 791 789 789 788 784 780 781
733 735 731 724 718 715 718 718 713 710 708 708 709 713 712 719 719 719 714 715 715 721 721 727 748 739 755 750 748 756 760 760 760 764 762 766 776 792 793 790 790 791 789 787 787
746 743 741 732 729 730 731 725 722 713 713 715 712 713 719 724 719 720 722 725 724 718 730 733 746 752 765 760 757 764 775 771 775 776 776 769 785 794 793 792 793 793 794 794 792